Tracking 17559 objects as of 13-February-2016
HD Live streaming from Space Station
objects crossing your sky now

CZ-2D DEB

Track CZ-2D DEB now!
10-day predictions


NORAD ID: 28742
Int'l Code: 2005-024F
Perigee: 523.9 km
Apogee: 698.0 km
Inclination: 97.6 °
Period: 96.8 minutes
Semi major axis: 6981 km
RCS: 0.0146 m2 (small)
Launch date: July 5, 2005
Source: People's Republic of China (PRC)
Launch site: Jiuquan Satellite Launch Center, China (JSC)

Note: This is SATELLITE DEBRIS
Your satellite tracking list
Your tracking list is empty





NASA's NSSDC Master Catalog

Two Line Element Set (TLE):
1 28742U 05024F   16043.42845099  .00007022  00000-0  66547-3 0  9991
2 28742  97.6325 211.7741 0124697  47.5880 313.5806 14.8812127356409
Source of the keplerian elements: AFSPC

N2YO: 391